Flag for China Weather past 2 weeks in Foochow, Fujian, China

Now
81 °F

Partly cloudy.


Feels Like: 85 °F
Forecast: 72 / 86 °F
Wind: 22 mph from Northeast

Location: Fuzhou Airport

Current Time: Sep 30, 2014 at 8:49:07 PM

Latest Report: Sep 30, 2014 at 8:00 PM


Visibility: N/A

Pressure: 29.95 "Hg

Humidity: 74%

Dew point: 72 °F

Location of FoochowLocation

Historic Weather in Foochow — Graph

°F

Foochow temperature yesterday

Maximum temperature yesterday: 90 °F (at 2:00 PM)
Minimum temperature yesterday: 77 °F (at 12:00 AM)
Average temperature yesterday: 82 °F

Past Weeks' High & Low Weather Summary

 TemperatureHumidityPressure
High91 °F (Sep 17, 11:00 AM)94% (Sep 21, 9:00 PM)29.98 "Hg (Sep 21, 9:00 PM)
Low72 °F (Sep 21, 2:00 AM)52% (Sep 23, 11:00 AM)29.59 "Hg (Sep 21, 1:00 PM)
Average81 °F76%29.84 "Hg
* Reported Sep 15 7:00 PM — Sep 30 7:00 PM, Foochow, Weather by CustomWeather, © 2014

Note: Actual official high and low records may vary slightly from our data, if they occured in-between our weather recording intervals... More about our weather records

Advertising

Foochow weather history for previous 24 hours

 ConditionsComfort  
Time TempWeatherWind HumidityBarometerVisibility
7:00 PM
Sep 30
81 °FMostly cloudy.22 mph74%29.95 "HgN/A
6:00 PM81 °FMostly cloudy.22 mph74%29.92 "HgN/A
5:00 PM81 °FPartly sunny.20 mph74%29.92 "HgN/A
4:00 PM82 °FPassing clouds.17 mph74%29.89 "HgN/A
3:00 PM82 °FPartly sunny.22 mph74%29.89 "Hg6 mi
2:00 PM84 °FPartly sunny.20 mph74%29.89 "Hg6 mi
1:00 PM86 °FPartly sunny.17 mph70%29.89 "Hg6 mi
12:00 PM88 °FScattered clouds.17 mph66%29.92 "Hg6 mi
11:00 AM86 °FScattered clouds.15 mph70%29.95 "Hg6 mi
10:00 AM86 °FScattered clouds.13 mph70%29.95 "Hg6 mi
9:00 AM84 °FScattered clouds.13 mph74%29.95 "Hg6 mi
8:00 AM84 °FPartly sunny.13 mph74%29.92 "Hg6 mi
7:00 AM82 °FPartly sunny.10 mph79%29.92 "Hg6 mi
6:00 AM81 °FPartly sunny.8 mph84%29.89 "Hg5 mi
5:00 AM81 °FPassing clouds.6 mph84%29.86 "Hg4 mi
4:00 AM81 °FPassing clouds.3 mph84%29.86 "Hg5 mi
3:00 AM81 °FPassing clouds.3 mph84%29.86 "Hg6 mi
2:00 AM81 °FPassing clouds.1 mph84%29.86 "Hg5 mi
1:00 AM81 °FPassing clouds.1 mph84%29.86 "Hg6 mi
12:00 AM79 °FPassing clouds.1 mph89%29.86 "Hg6 mi
11:00 PM
Sep 29
79 °FClear.1 mph89%29.86 "Hg6 mi
10:00 PM81 °FClear.No wind84%29.86 "Hg6 mi
9:00 PM81 °FClear.3 mph84%29.86 "Hg6 mi
8:00 PM82 °FClear.6 mph79%29.86 "Hg5 mi
Weather by CustomWeather, © 2014

See weather overviewHow to use our weather pages